This is the latest recevied weather packets stored in our database for station/object N9PBY-2. If no packets are shown the sender has not sent any weather packets the latest 10 day(s).
| Time | Temp. | Humidity | Pressure | Rain* | Wind** | Luminosity | Snow |
|---|---|---|---|---|---|---|---|
| 1778205007 | 3.89° C | 54% | 1011.1 hPa | 0 mm | - | - | - |
| 1778204407 | 3.89° C | 54% | 1010.9 hPa | 0 mm | - | - | - |
| 1778203807 | 4.44° C | 53% | 1010.7 hPa | 0 mm | - | - | - |
| 1778203206 | 4.44° C | 52% | 1010.8 hPa | 0 mm | - | - | - |
| 1778202606 | 5° C | 51% | 1010.7 hPa | 0 mm | - | - | - |
| 1778202007 | 5° C | 50% | 1010.6 hPa | 0 mm | - | - | - |
| 1778201406 | 5.56° C | 49% | 1010.5 hPa | 0 mm | - | - | - |
| 1778200806 | 5.56° C | 48% | 1010.4 hPa | 0 mm | - | - | - |
| 1778200206 | 6.11° C | 46% | 1010.4 hPa | 0 mm | - | - | - |
| 1778199607 | 6.11° C | 45% | 1010.4 hPa | 0 mm | - | - | - |
| 1778199007 | 6.67° C | 45% | 1010.4 hPa | 0 mm | - | - | - |
| 1778198406 | 6.67° C | 45% | 1010.3 hPa | 0 mm | - | - | - |
| 1778197807 | 6.67° C | 44% | 1010.2 hPa | 0 mm | - | - | - |
| 1778197206 | 7.22° C | 44% | 1010 hPa | 0 mm | - | - | - |
| 1778196606 | 7.22° C | 44% | 1009.9 hPa | 0 mm | - | - | - |
| 1778196006 | 7.22° C | 45% | 1010 hPa | 0 mm | - | - | - |
| 1778195406 | 7.78° C | 45% | 1009.9 hPa | 0 mm | - | - | - |
| 1778194807 | 7.78° C | 45% | 1010.1 hPa | 0 mm | - | - | - |
| 1778194207 | 7.78° C | 43% | 1010.3 hPa | 0 mm | - | - | - |
| 1778193606 | 8.33° C | 44% | 1010.3 hPa | 0 mm | - | - | - |
| 1778193007 | 8.89° C | 45% | 1010.4 hPa | 0 mm | - | - | - |
| 1778192406 | 8.89° C | 47% | 1010.3 hPa | 0 mm | - | - | - |
| 1778191806 | 8.89° C | 44% | 1010.5 hPa | 0 mm | - | - | - |
| 1778191207 | 8.89° C | 43% | 1010.5 hPa | 0 mm | - | - | - |
| 1778190606 | 8.89° C | 42% | 1010.4 hPa | 0 mm | - | - | - |
* Rain latest hour (hover to see other rain measurements)
** Current wind speed in m/s (hover to see current wind gust speed)